S-Net H
1 43187U 18014H 20128.66937391 .00000021 00000-0 68838-5 0 9995
2 43187 97.6959 37.1449 0011187 8.1577 351.9825 14.96790763123599
S-Net J
1 43188U 18014J 20128.66923759 .00000015 00000-0 63996-5 0 9992
2 43188 97.6962 37.1730 0011188 8.2302 351.9101 14.96790569123596
S-Net K
1 43189U 18014K 20128.66964281 .00000029 00000-0 75893-5 0 9992
2 43189 97.6959 37.1408 0011177 8.1458 351.9943 14.96789921122148
FMN 1
1 43192U 18015A 20128.73721767 .00001977 00000-0 80831-4 0 9995
2 43192 97.4359 258.4417 0014501 228.9106 272.6283 15.25475914125694
Shaonian Xing
1 43199U 18015H 20128.80140649 .00001338 00000-0 55281-4 0 9996
2 43199 97.4141 256.8843 0015307 240.3877 263.5472 15.25668892125769
1KUNS-PF
1 43466U 98067NP 20128.80780707 .00196739 26538-4 46065-3 0 9990
2 43466 51.6248 106.4570 0004425 64.0005 296.1459 15.96540204114013
UBAKUSAT
1 43467U 98067NQ 20128.73164883 .00025509 00000-0 18231-3 0 9996
2 43467 51.6315 131.0230 0001108 33.3760 326.7309 15.73583932113695
EnduroSat One
1 43551U 98067NZ 20128.05761039 .00044290 00000-0 25705-3 0 9993
2 43551 051.6325 133.2390 0004074 343.9499 016.1372 15.78056656103833
EQUISat
1 43552U 98067PA 20128.45267377 .00027440 00000-0 20540-3 0 9994
2 43552 051.6339 139.0145 0004392 327.1978 032.8747 15.72440608103750
UiTMSat 1
1 43589U 98067PD 20128.73234485 .00033014 00000-0 22364-3 0 9999
2 43589 51.6303 136.2074 0004473 345.7997 14.2876 15.74674893 99554
Maya 1
1 43590U 98067PE 20128.72520268 .00033245 00000-0 22509-3 0 9994
2 43590 51.6290 136.1690 0004629 344.1877 15.8977 15.74682414 99486
Bhutan 1
1 43591U 98067PF 20128.38399050 .00034377 00000-0 23165-3 0 9996
2 43591 51.6316 137.7003 0004599 344.7222 15.3638 15.74774941 99438
SiriusSat 1
1 43595U 98067PG 20128.75689187 .00028086 00000-0 20864-3 0 9997
2 43595 51.6309 140.1579 0002067 341.0865 19.0056 15.72614056 98613
SiriusSat 2
1 43596U 98067PH 20128.75238926 .00028291 00000-0 21102-3 0 9993
2 43596 51.6317 140.9486 0002115 330.9278 29.1603 15.72513166 98606
Tanusha-3
1 43597U 98067PJ 20128.71236253 .00065377 00000-0 33125-3 0 9995
2 43597 51.6283 130.7173 0003534 16.3677 343.7438 15.80894385 98732
SurfSat
1 43614U 18070B 20128.63895693 .00002747 00000-0 71035-4 0 9996
2 43614 93.0198 137.7234 0017578 128.4628 231.8207 15.39006114 92202
CP-7 DAVE
1 43615U 18070C 20128.66666247 .00002606 00000-0 67687-4 0 9993
2 43615 93.0200 137.7275 0017750 128.0400 232.2459 15.38870428 92208
ELFIN-B
1 43616U 18070D 20128.67670138 .00003675 00000-0 91516-4 0 9994
2 43616 93.0161 137.6620 0018218 129.7808 230.5055 15.40129153 92240
ELFIN-A
1 43617U 18070E 20128.77963386 .00003841 00000-0 95119-4 0 9994
2 43617 93.0213 138.1827 0017688 126.3588 233.9302 15.40301415 92269
STARS-Me Mother
1 43640U 98067PQ 20128.50281430 .00011588 00000-0 12160-3 0 9999
2 43640 051.6335 155.8394 0003022 248.3656 111.7017 15.64874217090314
CubeBel 1
1 43666U 18083E 20128.90697083 .00000848 00000-0 44708-4 0 9997
2 43666 97.4919 155.7668 0016114 136.6451 345.2511 15.18186101 84468
Changshagaoxin
1 43669U 18083H 20128.78752156 .00000780 00000-0 42546-4 0 9992
2 43669 97.4802 153.9664 0012213 129.7427 230.4884 15.17239334 84363
Ten-Koh
1 43677U 18084G 20128.06242638 .00000176 00000-0 23984-4 0 9996
2 43677 097.8771 245.2373 0014690 297.4119 062.5604 14.90276648082771
PO-101
1 43678U 18084H 20128.75542468 .00000127 00000-0 18372-4 0 9998
2 43678 97.8771 247.1736 0008946 318.5354 41.5207 14.91624953 82952
IRVINE 01
1 43693U 18088D 20128.68434104 .00002765 00000-0 11629-3 0 9995
2 43693 85.0328 103.9964 0020489 82.3768 277.9800 15.22707208 82649
QO-100
1 43700U 18090A 20128.79563372 .00000135 00000-0 00000 0 0 9995
2 43700 0.0144 277.8250 0001239 119.6904 140.7820 1.00275848 5542
Reaktor Hello World
1 43743U 18096AA 20124.15803877 .00001022 00000-0 40858-4 0 9997
2 43743 97.4233 198.2584 0017808 296.3755 63.4923 15.27311117 79483
MinXSS-2
1 43758U 18099A 20128.78910265 .00000067 00000-0 11246-4 0 9996
2 43758 97.7078 201.3891 0014712 329.9195 30.1180 14.95639104 77878
AO-95
1 43770U 18099N 20128.74690186 .00000677 00000-0 67121-4 0 9993
2 43770 97.7076 200.8324 0013791 338.9227 21.1424 14.94965861 77835
RANGE-B
1 43772U 18099Q 20128.77217983 .00000107 00000-0 14992-4 0 9994
2 43772 97.7142 201.3204 0013150 325.4783 34.5582 14.95149254 77835
RANGE-A
1 43773U 18099R 20128.67011263 .00000469 00000-0 48174-4 0 9997
2 43773 97.7018 200.4290 0012513 325.7996 34.2418 14.94949335 77814
MOVE-II
1 43780U 18099Y 20128.63998268 .00000117 00000-0 15819-4 0 9990
2 43780 97.7079 200.9112 0012762 337.2854 22.7801 14.95364953 77810
SNUSat 2
1 43782U 18099AA 20128.44777177 -.00000165 00000-0 -97681-5 0 9998
2 43782 97.7071 200.7356 0011823 326.4424 33.6047 14.95235531 77791
SnugLite
1 43784U 18099AC 20128.75340388 .00000643 00000-0 63485-4 0 9997
2 43784 97.7039 200.8737 0014182 333.2307 26.8181 14.95332290 77858
ITASat 1
1 43786U 18099AE 20128.75309289 .00000614 00000-0 60901-4 0 9992
2 43786 97.7092 201.2288 0014280 332.1908 27.8548 14.95309390 77852
EAGLET 1
1 43790U 18099AJ 20128.75544419 .00000611 00000-0 60018-4 0 9999
2 43790 97.7082 201.4677 0012729 338.0144 22.0529 14.95691181 77569
ESEO
1 43792U 18099AL 20128.76298054 .00000154 00000-0 19035-4 0 9998
2 43792 97.7057 201.3194 0012536 334.7874 25.2734 14.95592909 77623
CSIM
1 43793U 18099AM 20128.28436756 .00000993 00000-0 93525-4 0 9996
2 43793 97.7048 200.8061 0011858 333.6053 26.4563 14.96011240 77532
Astrocast 0.1
1 43798U 18099AS 20128.74947013 .00000660 00000-0 64177-4 0 9997
2 43798 97.7075 201.5527 0011125 316.3254 43.7086 14.95856694 77867
JO-97
1 43803U 18099AX 20128.43780657 -.00000008 00000-0 44517-5 0 9993
2 43803 97.7052 200.7476 0014363 333.6649 26.3840 14.95481405 77803
Suomi 100
1 43804U 18099AY 20128.63907066 -.00000059 00000-0 -11343-6 0 9990
2 43804 97.7050 200.9356 0014441 333.0209 27.0260 14.95471333 77841
Al Farabi 2
1 43805U 18099AZ 20128.81721677 .00000830 00000-0 79856-4 0 9999
2 43805 97.7057 201.1833 0014249 332.4183 27.6280 14.95585748 77879
PWSat 2
1 43814U 18099BJ 20128.75736850 .00024372 00000-0 14736-2 0 9992
2 43814 97.7856 208.7141 0002604 338.3322 21.7795 15.10648276 77570
CHOMPTT
1 43855U 18104G 20128.43571163 .00000941 00000-0 38277-4 0 9997
2 43855 085.0405 202.3338 0016030 195.9303 164.1437 15.22911078077286
ISAT
1 43879U 18111D 20128.83737167 .00000518 00000-0 50962-4 0 9998
2 43879 97.7051 36.9162 0014025 26.8815 333.3130 14.96220383 72419
UWE-4
1 43880U 18111E 20128.48999405 .00000785 00000-0 74203-4 0 9996
2 43880 097.7058 036.8218 0013054 029.3591 330.8361 14.96447902074361
Sparrow
1 43881U 18111F 20128.80805923 .00000312 00000-0 32495-4 0 9997
2 43881 97.7059 37.2012 0013083 25.4181 334.7681 14.96505213 72416
Lume 1
1 43908U 18111AJ 20127.97289706 .00000960 00000-0 41178-4 0 9996
2 43908 97.2692 29.1220 0019658 292.0118 67.9032 15.24968568 75709
FO-98
1 43933U 19003B 20122.73524494 .00000846 00000-0 39771-4 0 9999
2 43933 097.2343 174.2509 0019296 050.3484 068.5738 15.22053219071422
FO-99
1 43937U 19003F 20122.70883464 .00001418 00000-0 60402-4 0 9996
2 43937 097.2309 175.3342 0025107 033.6158 082.4929 15.24287230071516
Delphini 1
1 44030U 98067PW 20128.54321432 .00016839 00000-0 17366-3 0 9991
2 44030 051.6330 162.1191 0003874 312.5043 047.5625 15.64933422072100
